owner,sensor,date,latitude,longitude,vertical_datum,sea_water_practical_salinity,qcFlag 
ENP,ioos.station.NOAA.NDBC:LMRF1:1,2017-12-01T00:00:00Z,25.5560,-81.1690,1.5,1.28,1111122 
ENP,ioos.station.NOAA.NDBC:LMRF1:1,2017-12-01T01:00:00Z,25.5560,-81.1690,1.5,1.17,1111122 
ENP,ioos.station.NOAA.NDBC:LMRF1:1,2017-12-01T02:00:00Z,25.5560,-81.1690,1.5,0.97,1111122 
ENP,ioos.station.NOAA.NDBC:LMRF1:1,2017-12-01T04:00:00Z,25.5560,-81.1690,1.5,9.97,1111122 
ENP,ioos.station.NOAA.NDBC:LMRF1:1,2017-12-01T05:00:00Z,25.5560,-81.1690,1.5,16.2,1111122 
ENP,ioos.station.NOAA.NDBC:LMRF1:1,2017-12-01T07:00:00Z,25.5560,-81.1690,1.5,10.48,1111122 
ENP,ioos.station.NOAA.NDBC:LMRF1:1,2017-12-01T08:00:00Z,25.5560,-81.1690,1.5,9.59,1111122 
ENP,ioos.station.NOAA.NDBC:LMRF1:1,2017-12-01T09:00:00Z,25.5560,-81.1690,1.5,6.92,1111122 
ENP,ioos.station.NOAA.NDBC:LMRF1:1,2017-12-01T10:00:00Z,25.5560,-81.1690,1.5,5.51,1111122 
ENP,ioos.station.NOAA.NDBC:LMRF1:1,2017-12-01T12:00:00Z,25.5560,-81.1690,1.5,2.94,1111122 
ENP,ioos.station.NOAA.NDBC:LMRF1:1,2017-12-01T13:00:00Z,25.5560,-81.1690,1.5,2.46,1111122 
ENP,ioos.station.NOAA.NDBC:LMRF1:1,2017-12-01T14:00:00Z,25.5560,-81.1690,1.5,2.19,1111122 
ENP,ioos.station.NOAA.NDBC:LMRF1:1,2017-12-01T15:00:00Z,25.5560,-81.1690,1.5,1.91,1111122 
ENP,ioos.station.NOAA.NDBC:LMRF1:1,2017-12-01T16:00:00Z,25.5560,-81.1690,1.5,1.91,1111122 
ENP,ioos.station.NOAA.NDBC:LMRF1:1,2017-12-01T17:00:00Z,25.5560,-81.1690,1.5,2.55,1111122 
ENP,ioos.station.NOAA.NDBC:LMRF1:1,2017-12-01T18:00:00Z,25.5560,-81.1690,1.5,7.86,1111122 
ENP,ioos.station.NOAA.NDBC:LMRF1:1,2017-12-01T19:00:00Z,25.5560,-81.1690,1.5,11.26,1111122 
ENP,ioos.station.NOAA.NDBC:LMRF1:1,2017-12-01T20:00:00Z,25.5560,-81.1690,1.5,6.64,1111122 
ENP,ioos.station.NOAA.NDBC:LMRF1:1,2017-12-02T08:00:00Z,25.5560,-81.1690,1.5,12.3,1111122 
ENP,ioos.station.NOAA.NDBC:LMRF1:1,2017-12-02T09:00:00Z,25.5560,-81.1690,1.5,11.45,1111122 
ENP,ioos.station.NOAA.NDBC:LMRF1:1,2017-12-02T10:00:00Z,25.5560,-81.1690,1.5,8.89,1111122 
ENP,ioos.station.NOAA.NDBC:LMRF1:1,2017-12-02T12:00:00Z,25.5560,-81.1690,1.5,5.32,1111122 
ENP,ioos.station.NOAA.NDBC:LMRF1:1,2017-12-02T13:00:00Z,25.5560,-81.1690,1.5,3.93,1111122 
ENP,ioos.station.NOAA.NDBC:LMRF1:1,2017-12-02T14:00:00Z,25.5560,-81.1690,1.5,3.38,1111122 
ENP,ioos.station.NOAA.NDBC:LMRF1:1,2017-12-02T15:00:00Z,25.5560,-81.1690,1.5,3.12,1111122 
ENP,ioos.station.NOAA.NDBC:LMRF1:1,2017-12-02T16:00:00Z,25.5560,-81.1690,1.5,2.95,1111122 
ENP,ioos.station.NOAA.NDBC:LMRF1:1,2017-12-02T17:00:00Z,25.5560,-81.1690,1.5,3.04,1111122 
ENP,ioos.station.NOAA.NDBC:LMRF1:1,2017-12-02T18:00:00Z,25.5560,-81.1690,1.5,5.29,1111122 
ENP,ioos.station.NOAA.NDBC:LMRF1:1,2017-12-02T19:00:00Z,25.5560,-81.1690,1.5,11.91,1111122 
ENP,ioos.station.NOAA.NDBC:LMRF1:1,2017-12-02T20:00:00Z,25.5560,-81.1690,1.5,14.8,1111122 
ENP,ioos.station.NOAA.NDBC:LMRF1:1,2017-12-02T21:00:00Z,25.5560,-81.1690,1.5,8.15,1111122 
ENP,ioos.station.NOAA.NDBC:LMRF1:1,2017-12-02T22:00:00Z,25.5560,-81.1690,1.5,6.04,1111122 
ENP,ioos.station.NOAA.NDBC:LMRF1:1,2017-12-03T00:00:00Z,25.5560,-81.1690,1.5,4.7,1111122 
ENP,ioos.station.NOAA.NDBC:LMRF1:1,2017-12-03T01:00:00Z,25.5560,-81.1690,1.5,4.01,1111122 
ENP,ioos.station.NOAA.NDBC:LMRF1:1,2017-12-03T02:00:00Z,25.5560,-81.1690,1.5,3.61,1111122 
ENP,ioos.station.NOAA.NDBC:LMRF1:1,2017-12-03T04:00:00Z,25.5560,-81.1690,1.5,3.71,1111122 
ENP,ioos.station.NOAA.NDBC:LMRF1:1,2017-12-03T05:00:00Z,25.5560,-81.1690,1.5,11.0,1111122 
ENP,ioos.station.NOAA.NDBC:LMRF1:1,2017-12-03T07:00:00Z,25.5560,-81.1690,1.5,20.61,1111122 
ENP,ioos.station.NOAA.NDBC:LMRF1:1,2017-12-03T08:00:00Z,25.5560,-81.1690,1.5,21.86,1111122 
ENP,ioos.station.NOAA.NDBC:LMRF1:1,2017-12-03T09:00:00Z,25.5560,-81.1690,1.5,14.13,1111122 
ENP,ioos.station.NOAA.NDBC:LMRF1:1,2017-12-03T10:00:00Z,25.5560,-81.1690,1.5,11.45,1111122 
ENP,ioos.station.NOAA.NDBC:LMRF1:1,2017-12-03T13:00:00Z,25.5560,-81.1690,1.5,6.04,1111122 
ENP,ioos.station.NOAA.NDBC:LMRF1:1,2017-12-03T14:00:00Z,25.5560,-81.1690,1.5,4.9,1111122 
ENP,ioos.station.NOAA.NDBC:LMRF1:1,2017-12-03T15:00:00Z,25.5560,-81.1690,1.5,4.27,1111122 
ENP,ioos.station.NOAA.NDBC:LMRF1:1,2017-12-03T16:00:00Z,25.5560,-81.1690,1.5,3.91,1111122 
ENP,ioos.station.NOAA.NDBC:LMRF1:1,2017-12-03T17:00:00Z,25.5560,-81.1690,1.5,3.79,1111122 
ENP,ioos.station.NOAA.NDBC:LMRF1:1,2017-12-03T18:00:00Z,25.5560,-81.1690,1.5,3.99,1111122 
ENP,ioos.station.NOAA.NDBC:LMRF1:1,2017-12-03T19:00:00Z,25.5560,-81.1690,1.5,7.53,1111122 
ENP,ioos.station.NOAA.NDBC:LMRF1:1,2017-12-03T20:00:00Z,25.5560,-81.1690,1.5,14.33,1111122 
ENP,ioos.station.NOAA.NDBC:LMRF1:1,2017-12-03T21:00:00Z,25.5560,-81.1690,1.5,16.47,1111122 
ENP,ioos.station.NOAA.NDBC:LMRF1:1,2017-12-03T22:00:00Z,25.5560,-81.1690,1.5,9.27,1111122 
ENP,ioos.station.NOAA.NDBC:LMRF1:1,2017-12-03T23:00:00Z,25.5560,-81.1690,1.5,7.39,1111122 
ENP,ioos.station.NOAA.NDBC:LMRF1:1,2017-12-04T02:00:00Z,25.5560,-81.1690,1.5,5.17,1111122 
ENP,ioos.station.NOAA.NDBC:LMRF1:1,2017-12-04T04:00:00Z,25.5560,-81.1690,1.5,4.72,1111122 
ENP,ioos.station.NOAA.NDBC:LMRF1:1,2017-12-04T05:00:00Z,25.5560,-81.1690,1.5,5.39,1111122 
ENP,ioos.station.NOAA.NDBC:LMRF1:1,2017-12-04T07:00:00Z,25.5560,-81.1690,1.5,19.11,1111122 
ENP,ioos.station.NOAA.NDBC:LMRF1:1,2017-12-04T08:00:00Z,25.5560,-81.1690,1.5,21.44,1111122 
ENP,ioos.station.NOAA.NDBC:LMRF1:1,2017-12-04T09:00:00Z,25.5560,-81.1690,1.5,15.26,1111122 
ENP,ioos.station.NOAA.NDBC:LMRF1:1,2017-12-04T10:00:00Z,25.5560,-81.1690,1.5,13.74,1111122 
ENP,ioos.station.NOAA.NDBC:LMRF1:1,2017-12-04T12:00:00Z,25.5560,-81.1690,1.5,9.78,1111122 
ENP,ioos.station.NOAA.NDBC:LMRF1:1,2017-12-04T13:00:00Z,25.5560,-81.1690,1.5,8.02,1111122 
ENP,ioos.station.NOAA.NDBC:LMRF1:1,2017-12-04T14:00:00Z,25.5560,-81.1690,1.5,6.21,1111122 
ENP,ioos.station.NOAA.NDBC:LMRF1:1,2017-12-04T15:00:00Z,25.5560,-81.1690,1.5,5.41,1111122 
ENP,ioos.station.NOAA.NDBC:LMRF1:1,2017-12-04T16:00:00Z,25.5560,-81.1690,1.5,4.71,1111122 
ENP,ioos.station.NOAA.NDBC:LMRF1:1,2017-12-04T17:00:00Z,25.5560,-81.1690,1.5,4.23,1111122 
ENP,ioos.station.NOAA.NDBC:LMRF1:1,2017-12-04T18:00:00Z,25.5560,-81.1690,1.5,3.98,1111122 
ENP,ioos.station.NOAA.NDBC:LMRF1:1,2017-12-04T19:00:00Z,25.5560,-81.1690,1.5,4.11,1111122 
ENP,ioos.station.NOAA.NDBC:LMRF1:1,2017-12-04T20:00:00Z,25.5560,-81.1690,1.5,5.77,1111122 
ENP,ioos.station.NOAA.NDBC:LMRF1:1,2017-12-04T21:00:00Z,25.5560,-81.1690,1.5,10.23,1111122 
ENP,ioos.station.NOAA.NDBC:LMRF1:1,2017-12-04T22:00:00Z,25.5560,-81.1690,1.5,12.1,1111122 
ENP,ioos.station.NOAA.NDBC:LMRF1:1,2017-12-04T23:00:00Z,25.5560,-81.1690,1.5,7.55,1111122 
ENP,ioos.station.NOAA.NDBC:LMRF1:1,2017-12-05T00:00:00Z,25.5560,-81.1690,1.5,6.58,1111122 
ENP,ioos.station.NOAA.NDBC:LMRF1:1,2017-12-05T13:00:00Z,25.5560,-81.1690,1.5,7.67,1111122 
ENP,ioos.station.NOAA.NDBC:LMRF1:1,2017-12-05T14:00:00Z,25.5560,-81.1690,1.5,6.24,1111122 
ENP,ioos.station.NOAA.NDBC:LMRF1:1,2017-12-05T15:00:00Z,25.5560,-81.1690,1.5,5.0,1111122 
ENP,ioos.station.NOAA.NDBC:LMRF1:1,2017-12-05T16:00:00Z,25.5560,-81.1690,1.5,4.4,1111122 
ENP,ioos.station.NOAA.NDBC:LMRF1:1,2017-12-05T17:00:00Z,25.5560,-81.1690,1.5,3.86,1111122 
ENP,ioos.station.NOAA.NDBC:LMRF1:1,2017-12-05T18:00:00Z,25.5560,-81.1690,1.5,3.44,1111122 
ENP,ioos.station.NOAA.NDBC:LMRF1:1,2017-12-05T19:00:00Z,25.5560,-81.1690,1.5,3.26,1111122 
ENP,ioos.station.NOAA.NDBC:LMRF1:1,2017-12-05T20:00:00Z,25.5560,-81.1690,1.5,3.47,1111122 
ENP,ioos.station.NOAA.NDBC:LMRF1:1,2017-12-05T21:00:00Z,25.5560,-81.1690,1.5,5.62,1111122 
ENP,ioos.station.NOAA.NDBC:LMRF1:1,2017-12-05T22:00:00Z,25.5560,-81.1690,1.5,9.97,1111122 
ENP,ioos.station.NOAA.NDBC:LMRF1:1,2017-12-05T23:00:00Z,25.5560,-81.1690,1.5,8.89,1111122 
ENP,ioos.station.NOAA.NDBC:LMRF1:1,2017-12-06T00:00:00Z,25.5560,-81.1690,1.5,6.21,1111122 
ENP,ioos.station.NOAA.NDBC:LMRF1:1,2017-12-06T01:00:00Z,25.5560,-81.1690,1.5,5.06,1111122 
ENP,ioos.station.NOAA.NDBC:LMRF1:1,2017-12-06T02:00:00Z,25.5560,-81.1690,1.5,4.39,1111122 
ENP,ioos.station.NOAA.NDBC:LMRF1:1,2017-12-06T04:00:00Z,25.5560,-81.1690,1.5,3.56,1111122 
ENP,ioos.station.NOAA.NDBC:LMRF1:1,2017-12-06T05:00:00Z,25.5560,-81.1690,1.5,3.27,1111122 
ENP,ioos.station.NOAA.NDBC:LMRF1:1,2017-12-06T07:00:00Z,25.5560,-81.1690,1.5,3.97,1111122 
ENP,ioos.station.NOAA.NDBC:LMRF1:1,2017-12-06T08:00:00Z,25.5560,-81.1690,1.5,14.0,1111122 
ENP,ioos.station.NOAA.NDBC:LMRF1:1,2017-12-06T09:00:00Z,25.5560,-81.1690,1.5,18.63,1111122 
ENP,ioos.station.NOAA.NDBC:LMRF1:1,2017-12-06T10:00:00Z,25.5560,-81.1690,1.5,20.27,1111122 
ENP,ioos.station.NOAA.NDBC:LMRF1:1,2017-12-06T13:00:00Z,25.5560,-81.1690,1.5,8.26,1111122 
ENP,ioos.station.NOAA.NDBC:LMRF1:1,2017-12-06T14:00:00Z,25.5560,-81.1690,1.5,7.08,1111122 
ENP,ioos.station.NOAA.NDBC:LMRF1:1,2017-12-06T15:00:00Z,25.5560,-81.1690,1.5,5.63,1111122 
ENP,ioos.station.NOAA.NDBC:LMRF1:1,2017-12-06T16:00:00Z,25.5560,-81.1690,1.5,4.62,1111122 
ENP,ioos.station.NOAA.NDBC:LMRF1:1,2017-12-06T17:00:00Z,25.5560,-81.1690,1.5,4.03,1111122 
ENP,ioos.station.NOAA.NDBC:LMRF1:1,2017-12-06T18:00:00Z,25.5560,-81.1690,1.5,3.48,1111122 
ENP,ioos.station.NOAA.NDBC:LMRF1:1,2017-12-06T19:00:00Z,25.5560,-81.1690,1.5,3.15,1111122 
ENP,ioos.station.NOAA.NDBC:LMRF1:1,2017-12-06T20:00:00Z,25.5560,-81.1690,1.5,3.08,1111122 
ENP,ioos.station.NOAA.NDBC:LMRF1:1,2017-12-06T21:00:00Z,25.5560,-81.1690,1.5,3.51,1111122 
ENP,ioos.station.NOAA.NDBC:LMRF1:1,2017-12-06T22:00:00Z,25.5560,-81.1690,1.5,6.19,1111122 
ENP,ioos.station.NOAA.NDBC:LMRF1:1,2017-12-06T23:00:00Z,25.5560,-81.1690,1.5,9.27,1111122 
ENP,ioos.station.NOAA.NDBC:LMRF1:1,2017-12-07T00:00:00Z,25.5560,-81.1690,1.5,8.51,1111122 
ENP,ioos.station.NOAA.NDBC:LMRF1:1,2017-12-07T01:00:00Z,25.5560,-81.1690,1.5,6.15,1111122 
ENP,ioos.station.NOAA.NDBC:LMRF1:1,2017-12-07T02:00:00Z,25.5560,-81.1690,1.5,4.97,1111122 
ENP,ioos.station.NOAA.NDBC:LMRF1:1,2017-12-07T04:00:00Z,25.5560,-81.1690,1.5,4.13,1111122 
ENP,ioos.station.NOAA.NDBC:LMRF1:1,2017-12-07T05:00:00Z,25.5560,-81.1690,1.5,3.67,1111122 
ENP,ioos.station.NOAA.NDBC:LMRF1:1,2017-12-07T07:00:00Z,25.5560,-81.1690,1.5,3.36,1111122 
ENP,ioos.station.NOAA.NDBC:LMRF1:1,2017-12-07T08:00:00Z,25.5560,-81.1690,1.5,4.13,1111122 
ENP,ioos.station.NOAA.NDBC:LMRF1:1,2017-12-07T09:00:00Z,25.5560,-81.1690,1.5,11.91,1111122 
ENP,ioos.station.NOAA.NDBC:LMRF1:1,2017-12-07T10:00:00Z,25.5560,-81.1690,1.5,15.6,1111122 
ENP,ioos.station.NOAA.NDBC:LMRF1:1,2017-12-07T13:00:00Z,25.5560,-81.1690,1.5,7.13,1111122 
ENP,ioos.station.NOAA.NDBC:LMRF1:1,2017-12-07T14:00:00Z,25.5560,-81.1690,1.5,5.83,1111122 
ENP,ioos.station.NOAA.NDBC:LMRF1:1,2017-12-07T15:00:00Z,25.5560,-81.1690,1.5,5.18,1111122 
ENP,ioos.station.NOAA.NDBC:LMRF1:1,2017-12-07T16:00:00Z,25.5560,-81.1690,1.5,4.37,1111122 
ENP,ioos.station.NOAA.NDBC:LMRF1:1,2017-12-07T17:00:00Z,25.5560,-81.1690,1.5,3.62,1111122 
ENP,ioos.station.NOAA.NDBC:LMRF1:1,2017-12-07T18:00:00Z,25.5560,-81.1690,1.5,3.02,1111122 
ENP,ioos.station.NOAA.NDBC:LMRF1:1,2017-12-07T19:00:00Z,25.5560,-81.1690,1.5,2.65,1111122 
ENP,ioos.station.NOAA.NDBC:LMRF1:1,2017-12-07T20:00:00Z,25.5560,-81.1690,1.5,2.36,1111122 
ENP,ioos.station.NOAA.NDBC:LMRF1:1,2017-12-07T22:00:00Z,25.5560,-81.1690,1.5,2.68,1111122 
ENP,ioos.station.NOAA.NDBC:LMRF1:1,2017-12-07T23:00:00Z,25.5560,-81.1690,1.5,4.88,1111122 
ENP,ioos.station.NOAA.NDBC:LMRF1:1,2017-12-08T00:00:00Z,25.5560,-81.1690,1.5,7.94,1111122 
ENP,ioos.station.NOAA.NDBC:LMRF1:1,2017-12-08T01:00:00Z,25.5560,-81.1690,1.5,7.65,1111122 
ENP,ioos.station.NOAA.NDBC:LMRF1:1,2017-12-08T02:00:00Z,25.5560,-81.1690,1.5,4.8,1111122 
ENP,ioos.station.NOAA.NDBC:LMRF1:1,2017-12-08T04:00:00Z,25.5560,-81.1690,1.5,3.8,1111122 
ENP,ioos.station.NOAA.NDBC:LMRF1:1,2017-12-08T05:00:00Z,25.5560,-81.1690,1.5,3.28,1111122 
ENP,ioos.station.NOAA.NDBC:LMRF1:1,2017-12-08T07:00:00Z,25.5560,-81.1690,1.5,2.8,1111122 
ENP,ioos.station.NOAA.NDBC:LMRF1:1,2017-12-08T08:00:00Z,25.5560,-81.1690,1.5,2.84,1111122 
ENP,ioos.station.NOAA.NDBC:LMRF1:1,2017-12-08T09:00:00Z,25.5560,-81.1690,1.5,5.31,1111122 
ENP,ioos.station.NOAA.NDBC:LMRF1:1,2017-12-08T10:00:00Z,25.5560,-81.1690,1.5,11.58,1111122 
ENP,ioos.station.NOAA.NDBC:LMRF1:1,2017-12-08T12:00:00Z,25.5560,-81.1690,1.5,17.41,1111122 
ENP,ioos.station.NOAA.NDBC:LMRF1:1,2017-12-08T13:00:00Z,25.5560,-81.1690,1.5,11.45,1111122 
ENP,ioos.station.NOAA.NDBC:LMRF1:1,2017-12-08T14:00:00Z,25.5560,-81.1690,1.5,8.29,1111122 
ENP,ioos.station.NOAA.NDBC:LMRF1:1,2017-12-08T15:00:00Z,25.5560,-81.1690,1.5,6.93,1111122 
ENP,ioos.station.NOAA.NDBC:LMRF1:1,2017-12-08T17:00:00Z,25.5560,-81.1690,1.5,4.7,1111122 
ENP,ioos.station.NOAA.NDBC:LMRF1:1,2017-12-08T18:00:00Z,25.5560,-81.1690,1.5,3.85,1111122 
ENP,ioos.station.NOAA.NDBC:LMRF1:1,2017-12-08T19:00:00Z,25.5560,-81.1690,1.5,3.41,1111122 
ENP,ioos.station.NOAA.NDBC:LMRF1:1,2017-12-08T20:00:00Z,25.5560,-81.1690,1.5,3.0,1111122 
ENP,ioos.station.NOAA.NDBC:LMRF1:1,2017-12-08T21:00:00Z,25.5560,-81.1690,1.5,2.83,1111122 
ENP,ioos.station.NOAA.NDBC:LMRF1:1,2017-12-08T22:00:00Z,25.5560,-81.1690,1.5,2.94,1111122 
ENP,ioos.station.NOAA.NDBC:LMRF1:1,2017-12-08T23:00:00Z,25.5560,-81.1690,1.5,4.0,1111122 
ENP,ioos.station.NOAA.NDBC:LMRF1:1,2017-12-09T00:00:00Z,25.5560,-81.1690,1.5,8.77,1111122 
ENP,ioos.station.NOAA.NDBC:LMRF1:1,2017-12-09T01:00:00Z,25.5560,-81.1690,1.5,13.34,1111122 
ENP,ioos.station.NOAA.NDBC:LMRF1:1,2017-12-09T02:00:00Z,25.5560,-81.1690,1.5,13.94,1111122 
ENP,ioos.station.NOAA.NDBC:LMRF1:1,2017-12-09T04:00:00Z,25.5560,-81.1690,1.5,5.76,1111122 
ENP,ioos.station.NOAA.NDBC:LMRF1:1,2017-12-09T05:00:00Z,25.5560,-81.1690,1.5,5.09,1111122 
ENP,ioos.station.NOAA.NDBC:LMRF1:1,2017-12-09T07:00:00Z,25.5560,-81.1690,1.5,4.09,1111122 
ENP,ioos.station.NOAA.NDBC:LMRF1:1,2017-12-09T08:00:00Z,25.5560,-81.1690,1.5,3.99,1111122 
ENP,ioos.station.NOAA.NDBC:LMRF1:1,2017-12-09T09:00:00Z,25.5560,-81.1690,1.5,4.13,1111122 
ENP,ioos.station.NOAA.NDBC:LMRF1:1,2017-12-09T10:00:00Z,25.5560,-81.1690,1.5,7.06,1111122 
ENP,ioos.station.NOAA.NDBC:LMRF1:1,2017-12-09T12:00:00Z,25.5560,-81.1690,1.5,17.27,1111122 
ENP,ioos.station.NOAA.NDBC:LMRF1:1,2017-12-09T13:00:00Z,25.5560,-81.1690,1.5,19.45,1111122 
ENP,ioos.station.NOAA.NDBC:LMRF1:1,2017-12-09T14:00:00Z,25.5560,-81.1690,1.5,19.99,1111122 
ENP,ioos.station.NOAA.NDBC:LMRF1:1,2017-12-09T15:00:00Z,25.5560,-81.1690,1.5,19.86,1111122 
ENP,ioos.station.NOAA.NDBC:LMRF1:1,2017-12-09T16:00:00Z,25.5560,-81.1690,1.5,17.54,1111122 
ENP,ioos.station.NOAA.NDBC:LMRF1:1,2017-12-09T17:00:00Z,25.5560,-81.1690,1.5,13.41,1111122 
ENP,ioos.station.NOAA.NDBC:LMRF1:1,2017-12-09T18:00:00Z,25.5560,-81.1690,1.5,11.32,1111122 
ENP,ioos.station.NOAA.NDBC:LMRF1:1,2017-12-09T19:00:00Z,25.5560,-81.1690,1.5,8.19,1111122 
ENP,ioos.station.NOAA.NDBC:LMRF1:1,2017-12-09T20:00:00Z,25.5560,-81.1690,1.5,6.3,1111122 
ENP,ioos.station.NOAA.NDBC:LMRF1:1,2017-12-09T21:00:00Z,25.5560,-81.1690,1.5,5.37,1111122 
ENP,ioos.station.NOAA.NDBC:LMRF1:1,2017-12-09T22:00:00Z,25.5560,-81.1690,1.5,5.06,1111122 
ENP,ioos.station.NOAA.NDBC:LMRF1:1,2017-12-09T23:00:00Z,25.5560,-81.1690,1.5,5.08,1111122 
ENP,ioos.station.NOAA.NDBC:LMRF1:1,2017-12-10T00:00:00Z,25.5560,-81.1690,1.5,5.23,1111122 
ENP,ioos.station.NOAA.NDBC:LMRF1:1,2017-12-10T01:00:00Z,25.5560,-81.1690,1.5,5.61,1111122 
ENP,ioos.station.NOAA.NDBC:LMRF1:1,2017-12-10T02:00:00Z,25.5560,-81.1690,1.5,5.68,1111122 
ENP,ioos.station.NOAA.NDBC:LMRF1:1,2017-12-10T04:00:00Z,25.5560,-81.1690,1.5,4.43,1111122 
ENP,ioos.station.NOAA.NDBC:LMRF1:1,2017-12-10T05:00:00Z,25.5560,-81.1690,1.5,3.68,1111122 
ENP,ioos.station.NOAA.NDBC:LMRF1:1,2017-12-10T07:00:00Z,25.5560,-81.1690,1.5,2.79,1111122 
ENP,ioos.station.NOAA.NDBC:LMRF1:1,2017-12-10T08:00:00Z,25.5560,-81.1690,1.5,2.39,1111122 
ENP,ioos.station.NOAA.NDBC:LMRF1:1,2017-12-10T09:00:00Z,25.5560,-81.1690,1.5,2.08,1111122 
ENP,ioos.station.NOAA.NDBC:LMRF1:1,2017-12-10T10:00:00Z,25.5560,-81.1690,1.5,1.84,1111122 
ENP,ioos.station.NOAA.NDBC:LMRF1:1,2017-12-10T12:00:00Z,25.5560,-81.1690,1.5,1.51,1111122 
ENP,ioos.station.NOAA.NDBC:LMRF1:1,2017-12-10T14:00:00Z,25.5560,-81.1690,1.5,1.28,1111122 
ENP,ioos.station.NOAA.NDBC:LMRF1:1,2017-12-10T15:00:00Z,25.5560,-81.1690,1.5,1.19,1111122 
ENP,ioos.station.NOAA.NDBC:LMRF1:1,2017-12-10T16:00:00Z,25.5560,-81.1690,1.5,1.13,1111122 
ENP,ioos.station.NOAA.NDBC:LMRF1:1,2017-12-10T17:00:00Z,25.5560,-81.1690,1.5,1.04,1111122 
ENP,ioos.station.NOAA.NDBC:LMRF1:1,2017-12-10T18:00:00Z,25.5560,-81.1690,1.5,0.96,1111122 
ENP,ioos.station.NOAA.NDBC:LMRF1:1,2017-12-10T19:00:00Z,25.5560,-81.1690,1.5,0.89,1111122 
ENP,ioos.station.NOAA.NDBC:LMRF1:1,2017-12-10T20:00:00Z,25.5560,-81.1690,1.5,0.84,1111122 
ENP,ioos.station.NOAA.NDBC:LMRF1:1,2017-12-10T21:00:00Z,25.5560,-81.1690,1.5,0.81,1111122 
ENP,ioos.station.NOAA.NDBC:LMRF1:1,2017-12-10T22:00:00Z,25.5560,-81.1690,1.5,0.79,1111122 
ENP,ioos.station.NOAA.NDBC:LMRF1:1,2017-12-10T23:00:00Z,25.5560,-81.1690,1.5,0.77,1111122 
ENP,ioos.station.NOAA.NDBC:LMRF1:1,2017-12-11T00:00:00Z,25.5560,-81.1690,1.5,0.76,1111122 
ENP,ioos.station.NOAA.NDBC:LMRF1:1,2017-12-11T01:00:00Z,25.5560,-81.1690,1.5,0.79,1111122 
ENP,ioos.station.NOAA.NDBC:LMRF1:1,2017-12-11T02:00:00Z,25.5560,-81.1690,1.5,0.79,1111122 
ENP,ioos.station.NOAA.NDBC:LMRF1:1,2017-12-11T04:00:00Z,25.5560,-81.1690,1.5,2.09,1111122 
ENP,ioos.station.NOAA.NDBC:LMRF1:1,2017-12-11T05:00:00Z,25.5560,-81.1690,1.5,1.31,1111122 
ENP,ioos.station.NOAA.NDBC:LMRF1:1,2017-12-11T10:00:00Z,25.5560,-81.1690,1.5,0.77,1111122 
ENP,ioos.station.NOAA.NDBC:LMRF1:1,2017-12-11T12:00:00Z,25.5560,-81.1690,1.5,0.76,1111122 
ENP,ioos.station.NOAA.NDBC:LMRF1:1,2017-12-11T13:00:00Z,25.5560,-81.1690,1.5,0.74,1111122 
ENP,ioos.station.NOAA.NDBC:LMRF1:1,2017-12-11T14:00:00Z,25.5560,-81.1690,1.5,0.69,1111122 
ENP,ioos.station.NOAA.NDBC:LMRF1:1,2017-12-11T15:00:00Z,25.5560,-81.1690,1.5,0.67,1111122 
ENP,ioos.station.NOAA.NDBC:LMRF1:1,2017-12-11T16:00:00Z,25.5560,-81.1690,1.5,0.66,1111122 
ENP,ioos.station.NOAA.NDBC:LMRF1:1,2017-12-11T17:00:00Z,25.5560,-81.1690,1.5,0.65,1111122 
ENP,ioos.station.NOAA.NDBC:LMRF1:1,2017-12-11T18:00:00Z,25.5560,-81.1690,1.5,0.65,1111122 
ENP,ioos.station.NOAA.NDBC:LMRF1:1,2017-12-11T19:00:00Z,25.5560,-81.1690,1.5,0.66,1111122 
ENP,ioos.station.NOAA.NDBC:LMRF1:1,2017-12-11T20:00:00Z,25.5560,-81.1690,1.5,0.68,1111122 
ENP,ioos.station.NOAA.NDBC:LMRF1:1,2017-12-11T21:00:00Z,25.5560,-81.1690,1.5,0.66,1111122 
ENP,ioos.station.NOAA.NDBC:LMRF1:1,2017-12-11T22:00:00Z,25.5560,-81.1690,1.5,0.64,1111122 
ENP,ioos.station.NOAA.NDBC:LMRF1:1,2017-12-11T23:00:00Z,25.5560,-81.1690,1.5,0.64,1111122 
ENP,ioos.station.NOAA.NDBC:LMRF1:1,2017-12-12T00:00:00Z,25.5560,-81.1690,1.5,0.63,1111122 
ENP,ioos.station.NOAA.NDBC:LMRF1:1,2017-12-12T01:00:00Z,25.5560,-81.1690,1.5,0.62,1111122 
ENP,ioos.station.NOAA.NDBC:LMRF1:1,2017-12-12T02:00:00Z,25.5560,-81.1690,1.5,0.62,1111122 
ENP,ioos.station.NOAA.NDBC:LMRF1:1,2017-12-12T05:00:00Z,25.5560,-81.1690,1.5,10.04,1111122 
ENP,ioos.station.NOAA.NDBC:LMRF1:1,2017-12-12T07:00:00Z,25.5560,-81.1690,1.5,2.8,1111122 
ENP,ioos.station.NOAA.NDBC:LMRF1:1,2017-12-12T08:00:00Z,25.5560,-81.1690,1.5,1.92,1111122 
ENP,ioos.station.NOAA.NDBC:LMRF1:1,2017-12-12T09:00:00Z,25.5560,-81.1690,1.5,1.54,1111122 
ENP,ioos.station.NOAA.NDBC:LMRF1:1,2017-12-12T10:00:00Z,25.5560,-81.1690,1.5,1.38,1111122 
ENP,ioos.station.NOAA.NDBC:LMRF1:1,2017-12-12T13:00:00Z,25.5560,-81.1690,1.5,0.9,1111122 
ENP,ioos.station.NOAA.NDBC:LMRF1:1,2017-12-12T14:00:00Z,25.5560,-81.1690,1.5,1.1,1111122 
ENP,ioos.station.NOAA.NDBC:LMRF1:1,2017-12-12T15:00:00Z,25.5560,-81.1690,1.5,3.8,1111122 
ENP,ioos.station.NOAA.NDBC:LMRF1:1,2017-12-12T16:00:00Z,25.5560,-81.1690,1.5,10.55,1111122 
ENP,ioos.station.NOAA.NDBC:LMRF1:1,2017-12-12T17:00:00Z,25.5560,-81.1690,1.5,13.28,1111122 
ENP,ioos.station.NOAA.NDBC:LMRF1:1,2017-12-12T18:00:00Z,25.5560,-81.1690,1.5,13.34,1111122 
ENP,ioos.station.NOAA.NDBC:LMRF1:1,2017-12-12T19:00:00Z,25.5560,-81.1690,1.5,6.8,1111122 
ENP,ioos.station.NOAA.NDBC:LMRF1:1,2017-12-12T20:00:00Z,25.5560,-81.1690,1.5,4.66,1111122 
ENP,ioos.station.NOAA.NDBC:LMRF1:1,2017-12-12T21:00:00Z,25.5560,-81.1690,1.5,2.63,1111122 
ENP,ioos.station.NOAA.NDBC:LMRF1:1,2017-12-12T22:00:00Z,25.5560,-81.1690,1.5,2.16,1111122 
ENP,ioos.station.NOAA.NDBC:LMRF1:1,2017-12-13T09:00:00Z,25.5560,-81.1690,1.5,6.95,1111122 
ENP,ioos.station.NOAA.NDBC:LMRF1:1,2017-12-13T10:00:00Z,25.5560,-81.1690,1.5,5.41,1111122 
ENP,ioos.station.NOAA.NDBC:LMRF1:1,2017-12-13T12:00:00Z,25.5560,-81.1690,1.5,3.27,1111122 
ENP,ioos.station.NOAA.NDBC:LMRF1:1,2017-12-13T13:00:00Z,25.5560,-81.1690,1.5,2.87,1111122 
ENP,ioos.station.NOAA.NDBC:LMRF1:1,2017-12-13T14:00:00Z,25.5560,-81.1690,1.5,2.28,1111122 
ENP,ioos.station.NOAA.NDBC:LMRF1:1,2017-12-13T17:00:00Z,25.5560,-81.1690,1.5,1.87,1111122 
ENP,ioos.station.NOAA.NDBC:LMRF1:1,2017-12-13T18:00:00Z,25.5560,-81.1690,1.5,1.97,1111122 
ENP,ioos.station.NOAA.NDBC:LMRF1:1,2017-12-13T19:00:00Z,25.5560,-81.1690,1.5,2.16,1111122 
ENP,ioos.station.NOAA.NDBC:LMRF1:1,2017-12-13T20:00:00Z,25.5560,-81.1690,1.5,1.92,1111122 
ENP,ioos.station.NOAA.NDBC:LMRF1:1,2017-12-13T21:00:00Z,25.5560,-81.1690,1.5,1.81,1111122 
ENP,ioos.station.NOAA.NDBC:LMRF1:1,2017-12-13T22:00:00Z,25.5560,-81.1690,1.5,1.62,1111122 
ENP,ioos.station.NOAA.NDBC:LMRF1:1,2017-12-14T10:00:00Z,25.5560,-81.1690,1.5,3.92,1111122 
ENP,ioos.station.NOAA.NDBC:LMRF1:1,2017-12-14T12:00:00Z,25.5560,-81.1690,1.5,2.57,1111122 
ENP,ioos.station.NOAA.NDBC:LMRF1:1,2017-12-14T13:00:00Z,25.5560,-81.1690,1.5,2.2,1111122 
ENP,ioos.station.NOAA.NDBC:LMRF1:1,2017-12-14T14:00:00Z,25.5560,-81.1690,1.5,1.93,1111122 
ENP,ioos.station.NOAA.NDBC:LMRF1:1,2017-12-14T15:00:00Z,25.5560,-81.1690,1.5,1.72,1111122 
ENP,ioos.station.NOAA.NDBC:LMRF1:1,2017-12-14T16:00:00Z,25.5560,-81.1690,1.5,1.72,1111122 
ENP,ioos.station.NOAA.NDBC:LMRF1:1,2017-12-14T17:00:00Z,25.5560,-81.1690,1.5,2.04,1111122 
ENP,ioos.station.NOAA.NDBC:LMRF1:1,2017-12-14T18:00:00Z,25.5560,-81.1690,1.5,4.85,1111122 
ENP,ioos.station.NOAA.NDBC:LMRF1:1,2017-12-14T19:00:00Z,25.5560,-81.1690,1.5,7.64,1111122 
ENP,ioos.station.NOAA.NDBC:LMRF1:1,2017-12-14T20:00:00Z,25.5560,-81.1690,1.5,4.35,1111122 
ENP,ioos.station.NOAA.NDBC:LMRF1:1,2017-12-14T23:00:00Z,25.5560,-81.1690,1.5,2.49,1111122 
ENP,ioos.station.NOAA.NDBC:LMRF1:1,2017-12-15T00:00:00Z,25.5560,-81.1690,1.5,2.18,1111122 
ENP,ioos.station.NOAA.NDBC:LMRF1:1,2017-12-15T01:00:00Z,25.5560,-81.1690,1.5,2.01,1111122 
ENP,ioos.station.NOAA.NDBC:LMRF1:1,2017-12-15T02:00:00Z,25.5560,-81.1690,1.5,1.89,1111122 
ENP,ioos.station.NOAA.NDBC:LMRF1:1,2017-12-15T05:00:00Z,25.5560,-81.1690,1.5,12.43,1111122 
ENP,ioos.station.NOAA.NDBC:LMRF1:1,2017-12-15T08:00:00Z,25.5560,-81.1690,1.5,10.61,1111122 
ENP,ioos.station.NOAA.NDBC:LMRF1:1,2017-12-15T09:00:00Z,25.5560,-81.1690,1.5,7.69,1111122 
ENP,ioos.station.NOAA.NDBC:LMRF1:1,2017-12-15T10:00:00Z,25.5560,-81.1690,1.5,6.16,1111122 
ENP,ioos.station.NOAA.NDBC:LMRF1:1,2017-12-15T12:00:00Z,25.5560,-81.1690,1.5,4.0,1111122 
ENP,ioos.station.NOAA.NDBC:LMRF1:1,2017-12-15T13:00:00Z,25.5560,-81.1690,1.5,3.22,1111122 
ENP,ioos.station.NOAA.NDBC:LMRF1:1,2017-12-15T14:00:00Z,25.5560,-81.1690,1.5,2.88,1111122 
ENP,ioos.station.NOAA.NDBC:LMRF1:1,2017-12-15T15:00:00Z,25.5560,-81.1690,1.5,2.62,1111122 
ENP,ioos.station.NOAA.NDBC:LMRF1:1,2017-12-15T16:00:00Z,25.5560,-81.1690,1.5,2.44,1111122 
ENP,ioos.station.NOAA.NDBC:LMRF1:1,2017-12-15T17:00:00Z,25.5560,-81.1690,1.5,2.57,1111122 
ENP,ioos.station.NOAA.NDBC:LMRF1:1,2017-12-15T18:00:00Z,25.5560,-81.1690,1.5,3.54,1111122 
ENP,ioos.station.NOAA.NDBC:LMRF1:1,2017-12-15T19:00:00Z,25.5560,-81.1690,1.5,7.03,1111122 
ENP,ioos.station.NOAA.NDBC:LMRF1:1,2017-12-15T20:00:00Z,25.5560,-81.1690,1.5,8.51,1111122 
ENP,ioos.station.NOAA.NDBC:LMRF1:1,2017-12-15T21:00:00Z,25.5560,-81.1690,1.5,5.48,1111122 
ENP,ioos.station.NOAA.NDBC:LMRF1:1,2017-12-15T22:00:00Z,25.5560,-81.1690,1.5,4.08,1111122 
ENP,ioos.station.NOAA.NDBC:LMRF1:1,2017-12-15T23:00:00Z,25.5560,-81.1690,1.5,3.24,1111122 
ENP,ioos.station.NOAA.NDBC:LMRF1:1,2017-12-16T00:00:00Z,25.5560,-81.1690,1.5,2.98,1111122 
ENP,ioos.station.NOAA.NDBC:LMRF1:1,2017-12-16T01:00:00Z,25.5560,-81.1690,1.5,2.75,1111122 